Location: C?inelu de Sus
(46.0500°N, 22.9000°E)
Time: 19:49:05
(UTC+00:00)

Daily predictions for brighter satellites

Satellite Brightness Start Highest point End
(mag) Time Altitude Azimuth Time Altitude Azimuth Time Altitude Azimuth
COSMOS 2406 3.4 18:38:56 10° NNW 18:44:42 66° ENE 18:50:25 10° SE
STARLINK-1232 3.6 18:41:06 10° SW 18:45:14 77° SSE 18:49:23 10° ENE
Cosmos 2034 Rocket 4.3 18:39:48 10° NNW 18:46:00 74° W 18:52:07 10° S
NOSS 2-3 (D) 3.6 18:43:01 10° SSW 18:47:13 69° SE 18:52:10 10° NE
STARLINK-1066 3.6 18:43:26 10° WNW 18:47:35 89° NNE 18:51:44 10° ESE
Meteor 2-4 Rocket 4.2 18:44:15 10° SSE 18:49:10 38° E 18:54:06 10° NNE
STARLINK-1208 3.6 18:46:05 10° SW 18:50:13 83° SSE 18:54:22 10° ENE
BREEZE-M DEB (TANK) 4.2 18:49:10 10° W 18:51:05 20° SW 18:52:57 10° SSE
STARLINK-1081 3.6 18:48:23 10° WNW 18:52:33 86° SSW 18:56:42 10° SE
USA 245 4.1 18:49:58 10° SE 18:52:46 24° ENE 18:55:08 10° NNE
STARLINK-1271 3.6 18:51:02 10° WSW 18:55:11 88° SSE 18:59:21 10° ENE
Cosmos 1782 Rocket 3.6 18:51:53 10° N 18:56:23 86° E 19:00:51 10° S
STARLINK-1070 3.6 18:53:22 10° WNW 18:57:31 80° SSW 19:01:35 10° SE
USA 229 DEB 4.2 18:51:47 10° SW 18:58:16 66° NW 19:05:11 10° NE
USA 229 4.2 18:51:54 10° SW 18:58:23 66° NW 19:05:16 10° NE
BREEZE-M DEB (TANK) 3.5 18:52:23 10° WSW 18:59:53 88° NNW 19:03:27 10° ENE
STARLINK-1154 3.7 18:55:59 10° WSW 19:00:08 86° NNW 19:04:19 10° ENE
Resurs 01 Rocket 1.7 18:55:43 10° SSE 19:00:10 89° WSW 19:04:40 10° NNW
Cosmos 407 Rocket 3.9 18:55:26 10° NNW 19:00:45 68° WSW 19:06:03 10° S
Sich 1 Rocket 3.8 18:56:42 10° N 19:01:16 65° E 19:05:49 10° SSE
Cosmos 1452 Rocket 4.4 18:57:30 10° SSE 19:02:03 30° E 19:06:36 10° NE
STARLINK-1069 3.7 18:58:21 10° WNW 19:02:30 74° SW 19:06:23 11° SE
STARLINK-1243 4.5 18:59:09 10° SSW 19:02:41 28° SE 19:06:15 10° ENE
Cosmos 1703 Rocket 4.0 18:58:42 10° SSW 19:03:00 65° W 19:07:19 10° N
NOSS 3-1 (C) 4.3 18:59:19 10° WSW 19:04:46 54° NW 19:11:09 10° NE
STARLINK-1197 3.7 19:00:59 10° WSW 19:05:07 81° NNW 19:09:17 10° ENE
Cosmos 1420 Rocket 4.3 19:00:47 10° S 19:05:43 45° ESE 19:10:40 10° NNE
Cosmos 2279 Rocket 4.4 19:00:39 10° N 19:06:40 47° ENE 19:12:28 11° SSE
NOSS 3-1 (A) 3.6 19:01:52 10° SW 19:07:23 76° NW 19:13:51 10° NE
STARLINK-1085 3.7 19:03:21 10° WNW 19:07:29 69° SW 19:11:11 13° SE
STARLINK-1236 4.4 19:04:00 10° SSW 19:07:40 30° SE 19:11:19 10° ENE
STARLINK-1198 3.8 19:05:59 10° WSW 19:10:07 76° NNW 19:14:17 10° ENE
BREEZE-M DEB 4.1 19:10:59 13° ESE 19:10:59 13° ESE 19:12:29 10° E
Cosmos 1743 4.3 19:08:50 10° NNW 19:12:18 34° W 19:15:45 10° SSW
STARLINK-1086 3.8 19:08:20 10° WNW 19:12:27 64° SW 19:15:57 14° SE
Okean 2 Rocket 3.3 19:09:12 10° N 19:13:33 53° ENE 19:17:28 12° SSE
Abrixas rocket 2.8 19:10:44 10° W 19:13:38 51° N 19:16:32 10° ENE
ERBS 2.2 19:11:18 10° SW 19:14:32 57° SE 19:17:47 10° ENE
STARLINK-1094 4.4 19:10:37 10° NW 19:14:39 48° NNE 19:18:41 10° E
STARLINK-1199 3.9 19:10:58 10° WSW 19:15:06 71° NNW 19:19:15 10° ENE
Cosmos 2082 Rocket 2.8 19:09:42 10° NNW 19:15:14 47° ENE 19:20:07 13° SE
CZ-2C R/B 3.5 19:11:11 10° N 19:16:41 58° WNW 19:22:10 10° SSW
STARLINK-1095 3.9 19:13:20 10° WNW 19:17:25 59° SW 19:20:44 15° SE
STARLINK-1269 4.1 19:13:43 10° SSW 19:17:31 36° SE 19:21:20 10° ENE
Cosmos 1833 Rocket 2.7 19:11:58 10° NNW 19:17:37 75° ENE 19:22:36 13° SSE
NOSS 2-3 (C) 4.2 19:13:40 10° SW 19:17:56 66° NW 19:23:04 10° NE
STARLINK-1117 4.3 19:15:35 10° NW 19:19:38 51° NNE 19:23:41 10° E
STARLINK-1210 4.0 19:15:58 10° WSW 19:20:05 67° NNW 19:24:13 10° ENE
STARLINK-1077 4.0 19:18:18 10° WNW 19:22:22 54° SW 19:25:30 16° SE
STARLINK-1200 4.0 19:18:38 10° SSW 19:22:30 39° SE 19:26:22 10° ENE
STARLINK-1078 4.2 19:20:35 10° NW 19:24:39 53° NNE 19:28:36 11° E
STARLINK-1219 4.1 19:20:57 10° WSW 19:25:04 63° NNW 19:29:11 10° NE
Cosmos 1634 Rocket 4.1 19:18:54 10° N 19:25:15 82° W 19:31:35 10° S
Cosmos 1140 Rocket 4.1 19:21:20 10° NNW 19:26:24 53° WSW 19:31:27 10° S
Cosmos 2151 Rocket 3.9 19:22:51 10° N 19:27:17 52° ENE 19:30:45 16° SSE
STARLINK-1075 4.1 19:23:20 10° WNW 19:27:21 50° SW 19:30:18 17° SSE
STARLINK-1192 3.9 19:23:33 10° SSW 19:27:28 42° SE 19:31:24 10° ENE
SL-4 R/B 1.6 19:25:19 10° NNW 19:28:26 53° NE 19:30:14 20° SE
Cosmos 1943 Rocket 4.1 19:28:05 10° ESE 19:29:08 11° E 19:30:12 10° E
STARLINK-1108 4.1 19:25:33 10° NW 19:29:39 56° NNE 19:33:22 12° ESE
STARLINK-1211 4.3 19:25:58 10° WSW 19:30:04 59° NNW 19:34:10 10° NE
BREEZE M DEB (TANK) 3.2 19:23:15 10° SW 19:30:09 47° SSE 19:32:49 10° E
Aureole 1 Rocket 4.3 19:27:01 10° NW 19:31:07 43° WSW 19:36:24 10° S
IGS 5A 3.4 19:28:13 14° SSE 19:31:40 75° ENE 19:35:51 10° N
STARLINK-1093 4.2 19:28:19 10° WNW 19:32:18 46° SW 19:35:05 18° SSE
STARLINK-1244 3.8 19:28:27 10° SW 19:32:25 46° SE 19:36:24 10° ENE
SPOT 1/Viking Rocket 3.6 19:28:52 14° SSE 19:33:15 68° ENE 19:38:23 10° N
Terra 2.9 19:30:23 15° ESE 19:33:40 31° ENE 19:37:51 10° N
STARLINK-1071 4.0 19:30:31 10° NW 19:34:38 60° NNE 19:38:09 14° ESE
STARLINK-1245 4.4 19:30:58 10° WSW 19:35:03 56° NNW 19:39:09 10° NE
Cosmos 1741 Rocket 4.5 19:30:19 10° NNW 19:35:24 49° ENE 19:39:10 17° SE
STARLINK-1074 4.3 19:33:20 10° WNW 19:37:15 42° SW 19:39:52 19° SSE
STARLINK-1138 3.7 19:33:21 10° SW 19:37:21 50° SE 19:41:23 10° ENE
SeaSat 1 4.3 19:35:56 10° ENE 19:37:56 12° ESE 19:38:24 12° ESE
Okean 3 3.6 19:33:56 10° S 19:38:14 81° W 19:42:34 10° N
STARLINK-1110 4.0 19:34:32 10° NW 19:38:40 63° NNE 19:42:01 15° ESE
STARLINK-1233 4.5 19:35:59 10° W 19:40:02 53° NNW 19:44:07 10° NE
ISS -3.5 19:36:57 10° WNW 19:40:20 68° NNE 19:42:40 18° ESE
STARLINK-1143 3.7 19:38:16 10° SW 19:42:18 54° SE 19:46:22 10° ENE
ERS-1 Rocket 3.1 19:40:08 18° SSE 19:43:50 62° ENE 19:48:49 10° N
CARTOSAT-1 3.8 19:41:07 19° SE 19:44:00 54° ENE 19:48:14 10° N
STARLINK-1124 3.8 19:40:27 10° WNW 19:44:35 67° NNE 19:47:42 17° ESE
Cosmos 371 Rocket 3.2 19:39:50 10° S 19:44:38 70° ESE 19:49:30 10° NNE
Cosmos 1461 3.8 19:43:36 20° SSE 19:45:31 29° ESE 19:49:14 10° NE
Lacrosse 5 1.8 19:41:00 10° NW 19:46:06 86° NE 19:49:40 20° SE
Crew Dragon 0.4 19:44:57 10° WNW 19:47:07 59° NNE 19:47:56 32° E
STARLINK-1241 3.6 19:43:13 10° SW 19:47:17 59° SE 19:51:23 10° ENE
Cosmos 1850 Rocket 4.2 19:42:19 10° NNW 19:47:40 65° ENE 19:51:18 20° SE
Cosmos 2278 Rocket 2.5 19:43:05 10° SSW 19:48:44 71° WNW 19:54:27 10° NNE
STARLINK-1203 3.6 19:44:50 10° SW 19:48:58 62° SE 19:53:08 10° ENE
Meteor 1-4 Rocket 4.3 19:45:55 10° SW 19:48:59 30° WNW 19:52:07 10° N
STARLINK-1122 3.8 19:45:26 10° WNW 19:49:35 72° NNE 19:52:29 19° ESE
STARLINK-1239 3.5 19:48:09 10° SW 19:52:14 64° SE 19:56:21 10° ENE
STARLINK-1126 3.7 19:50:13 10° WNW 19:54:23 76° NNE 19:57:05 21° ESE
STARLINK-1240 3.5 19:53:07 10° SW 19:57:14 70° SE 20:01:22 10° ENE
Spot 2 Rocket 4.1 19:53:10 13° S 19:57:37 54° W 20:02:34 10° NNW
STARLINK-1082 3.6 19:55:23 10° WNW 19:59:33 82° NNE 20:02:02 23° ESE
Cosmos 1300 Rocket 4.1 19:57:32 10° NNW 20:01:54 55° W 20:05:20 16° SSW
STARLINK-1216 3.5 19:58:04 10° SW 20:02:12 75° SE 20:06:20 10° ENE
NOSS 8 (F) 4.1 19:59:40 10° SSW 20:02:56 61° SE 20:05:56 10° NE
STARLINK-1100 3.6 20:00:23 10° WNW 20:04:33 87° NNE 20:06:51 26° ESE
STARLINK-1237 3.5 20:03:01 10° SW 20:07:10 81° SSE 20:11:19 10° ENE
EXPRESS MD2 3.6 20:05:06 10° SW 20:08:21 54° SE 20:14:38 10° ENE
STARLINK-1083 3.5 20:05:20 10° WNW 20:09:30 88° SSW 20:11:36 28° ESE
Cosmos 1437 Rocket 2.7 20:08:11 19° SSW 20:10:47 79° W 20:14:37 10° N
STARLINK-1202 3.5 20:08:00 10° SW 20:12:09 86° SSE 20:16:19 10° ENE
STARLINK-1125 3.5 20:10:19 10° WNW 20:14:29 82° SSW 20:16:23 31° SE
Cosmos 1331 Rocket 4.3 20:12:10 25° SSE 20:14:44 45° ESE 20:19:39 10° NNE
Cosmos 1674 Rocket 3.7 20:15:46 18° SSW 20:18:56 75° W 20:23:21 10° N
STARLINK-1109 3.5 20:15:19 10° WNW 20:19:28 77° SSW 20:21:11 34° SE
STARLINK-1246 3.6 20:17:58 10° WSW 20:22:06 83° NNW 20:26:17 10° ENE
Okean 2 4.2 20:21:24 29° ESE 20:22:22 33° E 20:26:07 10° NNE
SPOT 5 3.2 20:19:10 23° S 20:22:23 72° WSW 20:27:43 10° NNW
SL-8 R/B 3.9 20:18:54 10° WNW 20:23:43 71° N 20:28:05 13° E
STARLINK-1091 3.6 20:20:17 10° WNW 20:24:25 71° SW 20:25:56 37° SE
Cosmos 1378 Rocket 3.5 20:21:45 23° S 20:24:27 85° W 20:28:53 10° N
Aureole 2 Rocket 2.0 20:24:35 50° S 20:25:17 75° ESE 20:28:20 10° NNE
Cosmos 304 Rocket 3.7 20:22:44 19° SSW 20:26:07 82° ESE 20:30:56 10° NNE
STARLINK-1224 3.7 20:22:56 10° WSW 20:27:05 78° NNW 20:31:15 10° ENE
STARLINK-1072 3.6 20:25:17 10° WNW 20:29:25 66° SW 20:30:44 40° SSE
STARLINK-1099 4.5 20:27:35 10° NW 20:31:37 47° NNE 20:34:33 17° E
STARLINK-1225 3.8 20:27:56 10° WSW 20:32:04 73° NNW 20:36:13 10° ENE
NOSS 8 (H) 4.0 20:32:18 51° SSW 20:32:56 75° SE 20:35:58 10° NE
Cosmos 1766 3.4 20:29:45 10° N 20:33:42 61° E 20:34:51 41° SE
STARLINK-1096 3.7 20:30:17 10° WNW 20:34:22 60° SW 20:35:31 42° SSE
Cosmos 1733 3.6 20:31:34 10° N 20:35:17 47° ENE 20:36:08 39° ESE
STARLINK-1104 4.4 20:32:32 10° NW 20:36:36 50° NNE 20:39:18 19° E
STARLINK-1230 3.9 20:32:55 10° WSW 20:37:03 68° NNW 20:41:11 10° ENE
USA 215 3.9 20:31:25 10° E 20:37:46 55° NNE 20:44:06 10° NW
Cosmos 1975 Rocket 3.5 20:37:20 37° SE 20:38:34 47° E 20:42:49 10° NNE
ATLAS 3B CENTAUR R/B 4.4 20:34:09 10° SW 20:38:13 15° SSW 20:38:13 15° SSW
Meteor 1-23 Rocket 4.4 20:34:41 17° SSW 20:39:12 71° WNW 20:44:53 10° N
STARLINK-1079 3.8 20:35:17 10° WNW 20:39:21 56° SW 20:40:19 43° S
STARLINK-1144 4.3 20:37:32 10° NW 20:41:37 52° NNE 20:44:07 21° E
STARLINK-1243 4.0 20:37:55 10° WSW 20:42:02 64° NNW 20:46:10 10° ENE
NOSS 2-2 (D) 3.1 20:42:58 52° SSE 20:43:24 57° SE 20:47:15 10° NE
Nadezhda 4 Rocket 4.1 20:39:32 18° SSW 20:44:14 72° W 20:50:23 10° N
STARLINK-1116 3.9 20:40:16 10° WNW 20:44:17 51° SW 20:45:04 44° S
STARLINK-1103 4.2 20:42:30 10° NW 20:46:36 55° NNE 20:48:53 24° E
STARLINK-1236 4.1 20:42:57 10° WSW 20:47:03 61° NNW 20:51:10 10° NE
Cosmos 2297 3.8 20:43:12 13° SSW 20:48:17 80° WNW 20:54:03 10° NNE
SL-27 R/B 3.8 20:45:18 10° N 20:48:31 29° ENE 20:49:14 27° E
Abrixas rocket 1.9 20:46:22 10° WNW 20:49:18 77° N 20:49:18 77° N
Thor Agena Rocket 3.9 20:46:01 10° NNE 20:51:11 51° E 20:52:56 36° SSE
STARLINK-1101 4.1 20:47:29 10° NW 20:51:35 59° NNE 20:53:39 27° E
Cosmos 1953 4.4 20:50:23 10° NNE 20:52:50 16° ENE 20:53:50 14° E
STARLINK-1094 4.0 20:50:18 10° WNW 20:54:14 43° SW 20:54:40 42° SSW
Meteor 1-22 Rocket 4.3 20:49:21 10° N 20:55:22 88° E 20:57:58 35° S
ATLAS 3B R/B 4.3 20:50:48 10° NNW 20:56:34 29° NNE 21:02:27 10° E
STARLINK-1102 4.0 20:52:28 10° NW 20:56:36 62° NNE 20:58:27 30° E
STARLINK-1269 4.4 20:52:56 10° WSW 20:57:00 54° NNW 21:01:05 10° NE
SL-4 R/B 3.7 20:58:25 11° NE 20:58:25 11° NE 20:58:33 10° NE
CENTAUR R/B 3.8 20:50:15 10° NW 20:57:55 52° NE 21:05:20 14° ESE
Cosmos 2082 Rocket 3.5 20:54:12 10° NW 20:59:05 30° WSW 21:01:58 19° SSW
STARLINK-1117 4.2 20:55:17 10° WNW 20:59:11 40° SW 20:59:26 39° SSW
Cosmos 1378 3.7 20:59:29 34° SW 21:00:44 52° WNW 21:04:23 10° N
Okean 1 Rocket 4.2 20:57:14 10° NNW 21:01:21 36° W 21:03:19 24° SW
STARLINK-1111 3.9 20:57:26 10° WNW 21:01:34 66° NNE 21:03:13 34° E
NOSS 2-2 (E) 3.3 20:59:56 29° SW 21:01:39 73° NW 21:05:43 10° NE
STARLINK-1200 4.5 20:57:58 10° W 21:02:01 51° NNW 21:06:05 10° NE
Cosmos 1758 4.2 21:00:23 10° N 21:04:08 36° ENE 21:04:50 34° E
STARLINK-1078 4.3 21:00:19 10° WNW 21:04:09 37° SW 21:04:14 37° SW
ATLAS 5 CENTAUR R/B 3.9 21:07:13 11° ENE 21:07:13 11° ENE 21:07:19 10° ENE
STARLINK-1073 3.8 21:02:24 10° WNW 21:06:34 70° NNE 21:07:59 39° E
EO 1 Del DPAF 3.1 21:04:57 10° NNE 21:08:43 65° ESE 21:09:01 62° SE
STARLINK-1108 4.5 21:05:20 10° WNW 21:09:00 34° SW 21:09:00 34° SW
Cosmos 1455 Rocket 2.9 21:06:56 10° N 21:11:19 84° E 21:12:15 54° SSE
Cosmos 1025 Rocket 3.8 21:10:58 34° ESE 21:11:21 35° E 21:15:15 10° NNE
Terra 3.1 21:09:15 23° SW 21:11:21 33° W 21:15:39 10° NNW
STARLINK-1121 3.7 21:07:23 10° WNW 21:11:33 75° NNE 21:12:47 44° ESE
Cosmos 1943 Rocket 2.1 21:09:27 35° S 21:11:50 74° ESE 21:17:25 10° NNE
Cosmos 2369 Rocket 2.3 21:10:40 40° SSE 21:12:24 55° ESE 21:17:56 10° NE
SL-4 R/B 4.2 21:17:24 18° E 21:17:24 18° E 21:19:04 10° E
Cosmos 1470 2.9 21:11:32 10° N 21:15:21 54° ENE 21:15:44 51° ESE
SeaSat 1 2.3 21:11:08 10° NNE 21:16:07 85° ESE 21:18:10 36° SSW
STARLINK-1106 3.6 21:12:21 10° WNW 21:16:31 80° NNE 21:17:33 49° ESE
ISS -1.6 21:14:10 10° W 21:15:35 18° WSW 21:15:35 18° WSW
Cosmos 1805 4.5 21:16:10 10° NNW 21:19:42 33° W 21:20:39 29° WSW
Meteor 2-13 Rocket 4.4 21:18:05 35° S 21:20:55 90° E 21:27:08 10° N
STARLINK-1112 3.5 21:17:20 10° WNW 21:21:30 85° NNE 21:22:20 56° ESE
Cosmos 1461 4.4 21:20:38 10° WSW 21:24:30 36° NW 21:28:35 10° NNE
NOSS 2-2 (C) 3.8 21:23:36 28° WSW 21:25:15 54° NW 21:29:13 10° NNE
Cosmos 1092 Rocket 4.4 21:21:45 23° SSW 21:25:30 55° WNW 21:31:33 10° N
STARLINK-1128 3.5 21:22:20 10° WNW 21:26:30 90° SSW 21:27:08 63° ESE
ATLAS 2AS CENTAUR R/B 3.4 21:23:53 33° SSE 21:26:39 44° ESE 21:34:04 10° NE
Spot 4 3.8 21:25:29 49° SSE 21:26:49 87° WSW 21:31:43 10° NNW
Cosmos 1726 3.4 21:25:06 10° NNE 21:28:23 29° ENE 21:28:37 28° E
Lacrosse 5 3.5 21:24:57 10° WNW 21:28:29 19° WSW 21:28:51 19° SW
STARLINK-1113 3.5 21:27:18 10° WNW 21:31:28 84° SSW 21:31:54 70° SE
NOSS 3-2 (A) 4.0 21:25:17 10° NW 21:32:50 80° SW 21:37:05 33° SSE
Cosmos 1842 3.9 21:32:44 41° WSW 21:33:33 49° WNW 21:37:22 10° N
Cosmos 968 Rocket 3.5 21:30:59 10° NNW 21:36:10 72° ENE 21:37:40 46° SE
STARLINK-1119 3.4 21:32:17 10° WNW 21:36:27 78° SSW 21:36:41 74° S
Cosmos 1503 Rocket 4.5 21:31:18 10° NNW 21:36:31 54° ENE 21:38:26 35° ESE
Cosmos 1536 Rocket 3.6 21:37:48 56° ESE 21:38:13 59° E 21:42:30 10° NNE
Meteor 1-21 4.3 21:38:28 38° SSW 21:40:44 76° WNW 21:46:23 10° N
STARLINK-1114 3.5 21:37:16 10° WNW 21:41:24 73° SW 21:41:28 73° SSW
Cosmos 1242 Rocket 2.7 21:41:39 64° W 21:41:50 65° WNW 21:45:30 10° N
USA 238 DEB 3.8 21:34:50 10° NW 21:42:01 71° SW 21:45:12 37° SSE
USA 238 3.8 21:34:56 10° NW 21:42:08 72° SW 21:45:19 37° SSE
Cosmos 2292 Rocket 4.2 21:42:16 35° E 21:42:16 35° E 21:45:30 10° NNE
ALOS 2 2.6 21:44:27 58° SE 21:45:12 72° ENE 21:49:35 10° N
STARLINK-1130 (DARKSAT) 3.6 21:42:17 10° WNW 21:46:17 67° SW 21:46:17 67° SW
Cosmos 1544 Rocket 3.8 21:43:13 10° NNW 21:47:28 55° W 21:48:06 50° SW
Cosmos 1656 Rocket 3.8 21:48:58 46° SSE 21:50:11 56° ESE 21:55:40 10° NE
ATLAS CENTAUR R/B 3.0 21:51:29 24° E 21:51:29 24° E 21:54:01 10° ENE
STARLINK-1084 3.7 21:47:14 10° WNW 21:51:01 60° WSW 21:51:01 60° WSW
Cosmos 2263 4.1 21:51:00 45° SSW 21:52:47 81° ESE 21:58:26 10° NNE
Cosmos 1354 Rocket 4.2 21:48:01 10° NNW 21:53:18 66° ENE 21:54:59 42° SE
Meteor 2-10 3.9 21:49:54 10° N 21:54:59 79° ENE 21:56:10 53° SSE
STARLINK-1098 3.9 21:52:15 10° WNW 21:55:48 52° WSW 21:55:48 52° WSW
S3M 3.9 21:51:48 10° N 21:57:58 85° W 22:00:08 44° S
Aureole 3 Rocket 4.5 21:53:05 10° NNW 21:58:43 59° W 22:01:57 34° SSW
Cosmos 1486 Rocket 4.2 21:53:37 10° NNW 21:58:50 59° WSW 22:00:00 47° SSW
Cosmos 1867 4.0 21:54:03 10° NNW 21:59:28 59° NE 22:01:59 31° ESE
Aureole 3 3.8 21:57:22 10° N 22:00:18 40° NE 22:00:18 40° NE
STARLINK-1123 4.1 21:57:15 10° WNW 22:00:35 46° WSW 22:00:35 46° WSW
In-Cosmos 22 4.2 22:00:20 49° SSE 22:01:32 63° E 22:06:45 10° NNE
BREEZE-M DEB (TANK) 4.4 21:57:26 10° WNW 22:04:00 27° WSW 22:04:24 27° SW
STARLINK-1097 4.3 22:02:14 10° WNW 22:05:21 41° WSW 22:05:21 41° WSW
SL-8 R/B 3.8 22:01:32 10° WNW 22:06:01 54° SW 22:06:01 54° SW
Cosmos 1655 Rocket 4.0 22:04:26 41° SSW 22:06:46 80° W 22:13:04 10° N
Cosmos 1271 Rocket 3.3 22:07:09 46° W 22:07:31 47° WNW 22:11:19 10° N
Cosmos 1833 4.1 22:02:18 10° NNW 22:07:58 87° WSW 22:09:37 48° SSE
Cosmos 1606 Rocket 4.1 22:09:48 10° N 22:13:59 46° ENE 22:14:40 42° ESE
APEX 4.4 22:11:10 33° SW 22:14:15 75° WNW 22:19:49 10° NNE
Cosmos 1707 3.4 22:15:44 44° W 22:16:04 45° WNW 22:19:50 10° N
Cosmos 2098 Rocket 4.4 22:13:41 39° SSE 22:16:21 63° E 22:23:42 10° NNE
BREEZE-M DEB (TANK) 3.3 22:07:58 10° W 22:16:37 60° NNW 22:19:32 10° ENE
Cosmos 2297 Rocket 4.5 22:15:53 10° N 22:19:56 20° NE 22:23:58 10° E
USA 215 3.3 22:18:24 40° SSE 22:20:44 60° SW 22:27:13 10° WNW
Meteor 1-16 Rocket 4.1 22:18:49 10° NNW 22:24:24 79° W 22:25:47 51° S
Cosmos 1674 2.9 22:25:02 61° ENE 22:25:02 61° ENE 22:28:34 10° NNE
Helios 1A 2.8 22:24:53 72° SW 22:25:09 76° WSW 22:29:22 10° NNW
Cosmos 1340 Rocket 2.9 22:22:56 10° NNW 22:26:58 66° W 22:27:01 66° WSW
Cosmos 1953 2.8 22:25:41 10° NNW 22:29:31 46° W 22:29:31 46° W
Helios 1B rocket 3.2 22:26:57 10° NNE 22:30:50 39° E 22:30:58 39° ESE
Cosmos 1992 Rocket 4.4 22:30:06 38° SW 22:31:54 58° WNW 22:37:04 10° NNE
YAOGAN 11 3.9 22:33:19 70° S 22:33:47 82° WSW 22:38:09 10° NNW
COSMOS 2487 2.8 22:31:11 10° NNW 22:34:08 61° NNW 22:34:08 61° NNW
NOSS 3-2 (C) 4.3 22:32:19 10° NW 22:39:41 53° WSW 22:42:46 36° S
EO 1 Delta rocket 4.1 22:34:05 10° N 22:40:11 81° E 22:41:34 51° S
STARLINK-1212 4.0 22:37:30 10° NW 22:40:03 43° N 22:40:03 43° N
STARLINK-1105 4.0 22:38:00 10° NW 22:40:28 42° NNW 22:40:28 42° NNW
COSMOS 2455 2.8 22:39:19 45° SSW 22:41:15 80° ESE 22:47:18 10° NE
STARLINK-1247 4.0 22:38:50 10° NW 22:41:23 43° N 22:41:23 43° N
Resurs 1-4 Rocket 4.4 22:39:43 10° ENE 22:42:09 13° E 22:44:30 10° ESE
CZ-2D R/B 4.4 22:40:01 10° ENE 22:42:10 12° E 22:44:18 10° ESE
STARLINK-1227 4.1 22:39:20 10° NW 22:41:46 42° NNW 22:41:46 42° NNW
BREEZE-M DEB (TANK) 4.1 22:35:36 10° WNW 22:42:01 35° WSW 22:42:01 35° WSW
ATLAS CENTAUR R/B 3.8 22:40:44 10° NNW 22:42:33 19° NE 22:45:18 10° E
STARLINK-1226 4.0 22:40:12 10° NW 22:42:41 43° NNW 22:42:41 43° NNW
STARLINK-1215 4.0 22:41:06 10° NW 22:43:34 43° NNW 22:43:34 43° NNW
STARLINK-1234 4.1 22:41:59 10° NW 22:44:17 41° NW 22:44:17 41° NW
Cosmos 2266 Rocket 4.3 22:43:06 36° SW 22:45:25 56° WNW 22:51:24 10° N
STARLINK-1217 4.0 22:42:54 10° NW 22:45:17 42° NNW 22:45:17 42° NNW
STARLINK-1229 4.0 22:43:46 10° NW 22:46:09 42° NNW 22:46:09 42° NNW
STARLINK-1270 4.1 22:44:40 10° NW 22:47:01 41° NNW 22:47:01 41° NNW
ATLAS 3B R/B 2.6 22:41:17 10° NW 22:48:07 89° NE 22:52:09 28° SE
NOSS 3-4 (A) 3.5 22:45:54 32° SW 22:48:48 74° NW 22:55:12 10° NE
NOSS 3-4 (C) 3.5 22:46:01 33° SW 22:48:54 75° NW 22:55:18 10° NE
CENTAUR R/B 3.4 22:41:03 10° NW 22:48:56 54° WSW 22:52:28 35° S
STARLINK-1189 4.1 22:46:30 10° NW 22:48:46 40° NNW 22:48:46 40° NNW
STARLINK-1188 4.1 22:47:23 10° NW 22:49:38 39° NNW 22:49:38 39° NNW
STARLINK-1187 4.4 22:48:30 10° NW 22:50:23 32° NW 22:50:23 32° NW
STARLINK-1191 4.2 22:49:50 10° NW 22:51:54 36° NW 22:51:54 36° NW
Cosmos 1892 Rocket 3.5 22:52:46 63° SSE 22:53:19 72° E 22:57:42 10° NNE
STARLINK-1221 4.2 22:50:43 10° NW 22:52:46 36° NW 22:52:46 36° NW
SL-4 R/B 2.3 22:52:55 44° WSW 22:54:29 88° NNW 22:59:18 10° ENE
STARLINK-1222 4.3 22:51:37 10° NW 22:53:39 35° NW 22:53:39 35° NW
Cosmos 1809 Rocket 4.4 22:52:39 43° S 22:54:48 83° E 23:01:02 10° N
STARLINK-1214 4.3 22:52:33 10° NW 22:54:32 34° NW 22:54:32 34° NW
Cosmos 1943 Rocket 4.2 22:51:57 10° W 22:56:12 22° NW 23:00:29 10° N
Cosmos 2227 Rocket 4.0 22:51:34 10° N 22:56:28 29° NE 23:01:20 10° ESE
Cosmos 2369 Rocket 3.8 22:52:24 12° WSW 22:56:45 28° NW 23:01:36 10° N
Cosmos 1244 Rocket 4.5 22:54:33 42° S 22:56:49 75° E 23:03:00 10° NNE
GEOS 3 Rocket 4.3 22:52:17 12° ESE 22:56:57 52° NE 23:02:05 10° NNW
PSLV R/B 3.6 22:53:21 10° NNE 22:57:56 76° ESE 22:58:37 61° SSE
Timation 2 Rocket 4.0 22:51:38 10° NNW 22:58:00 75° ENE 23:01:16 29° SE
Cosmos 1908 3.7 22:56:45 10° NNW 23:00:15 47° W 23:00:15 47° W
Cosmos 1726 Rocket 3.4 22:56:39 10° NNW 23:00:58 71° W 23:01:22 65° SW
Cosmos 2084 4.1 23:02:53 42° ESE 23:02:56 42° ESE 23:07:09 10° NE
Cosmos 1726 4.0 23:00:38 10° NW 23:03:06 20° W 23:03:06 20° W
SL-16 R/B 3.9 22:59:37 10° SE 23:05:01 34° ENE 23:10:28 10° N
Cosmos 1777 Rocket 3.9 23:04:05 10° NNW 23:09:19 77° WSW 23:10:44 49° S
Meteor 1-24 Rocket 3.5 23:11:20 48° S 23:12:54 85° E 23:18:20 10° NNE
STARLINK-1201 4.5 23:11:28 10° NW 23:15:32 51° NNE 23:19:35 10° E
Cosmos 2228 3.6 23:11:36 10° NNW 23:15:35 39° W 23:15:48 39° W
ATLAS 2AS CENTAUR R/B 3.5 23:11:15 17° WSW 23:17:35 57° NW 23:25:23 10° NE
BREEZE-M DEB (TANK) 2.7 23:18:53 33° ENE 23:18:53 33° ENE 23:20:13 10° ENE
STARLINK-1206 4.4 23:16:26 10° NW 23:20:31 53° NNE 23:24:35 10° ESE
Cosmos 921 Rocket 2.8 23:22:01 63° S 23:22:39 79° ESE 23:26:59 10° NNE
SJ 16-02 3.0 23:19:48 10° N 23:23:46 31° ENE 23:27:10 13° ESE
SL-19 R/B 4.4 23:19:49 10° NNE 23:25:15 68° ESE 23:27:24 39° S
STARLINK-1205 4.2 23:21:26 10° NW 23:25:31 56° NNE 23:29:37 10° ESE
STARLINK-1372 4.4 23:28:28 32° ESE 23:28:28 32° ESE 23:31:03 10° ENE
STARLINK-60 4.2 23:27:06 32° WNW 23:27:52 38° NNW 23:30:55 10° NE
Cosmos 1626 2.2 23:29:00 59° W 23:29:10 60° W 23:32:51 10° N
ATLAS CENTAUR R/B 2.4 23:27:38 29° W 23:29:14 41° NW 23:33:10 10° NNE
Cosmos 1437 3.0 23:29:48 59° NNE 23:29:48 59° NNE 23:32:20 10° NNE
STARLINK-1378 4.4 23:30:16 33° ESE 23:30:16 33° ESE 23:32:49 10° ENE
STARLINK-1364 4.5 23:31:37 27° E 23:31:37 27° E 23:33:22 10° ENE
STARLINK-1218 4.1 23:26:24 10° NW 23:30:31 59° NNE 23:34:37 10° ESE
STARLINK-1376 4.5 23:31:58 27° E 23:31:58 27° E 23:33:44 10° ENE
SL-08 R/B 4.5 23:28:08 38° S 23:30:47 87° W 23:37:11 10° N
Spot 1 4.3 23:29:14 42° SSE 23:30:49 84° ENE 23:35:46 10° NNW
STARLINK-1360 4.5 23:32:16 27° E 23:32:16 27° E 23:34:03 10° ENE
STARLINK-1361 4.4 23:32:35 28° E 23:32:35 28° E 23:34:23 10° ENE
STARLINK-1367 4.4 23:32:52 28° E 23:32:52 28° E 23:34:44 10° ENE
STARLINK-1366 4.4 23:33:18 28° E 23:33:18 28° E 23:35:08 10° ENE
Cosmos 2058 Rocket 3.3 23:28:22 10° NNW 23:32:40 51° W 23:33:18 47° SW
STARLINK-1329 4.2 23:33:22 37° ESE 23:33:22 37° ESE 23:36:13 10° ENE
STARLINK-1379 4.1 23:33:45 37° ESE 23:33:45 37° ESE 23:36:36 10° ENE
DELTA 2 DEB (DPAF) 4.3 23:33:36 37° SE 23:35:17 69° ENE 23:39:44 10° N
STARLINK-1254 4.0 23:31:22 10° NW 23:35:30 63° NNE 23:39:37 10° ESE
STARLINK-1362 4.0 23:36:06 40° ESE 23:36:06 40° ESE 23:39:04 10° ENE
STARLINK-1365 3.9 23:36:11 43° ESE 23:36:11 43° ESE 23:39:15 10° ENE
Cosmos 1300 2.8 23:33:18 10° NNW 23:37:04 57° W 23:37:12 56° WSW
STARLINK-1373 3.9 23:38:18 42° ESE 23:38:18 42° ESE 23:41:17 10° ENE
Meteor 2-16 Rocket 4.4 23:35:43 38° SSW 23:38:18 82° W 23:44:28 10° N
Meteor 2-5 Rocket 4.3 23:36:21 32° WSW 23:38:25 46° WNW 23:43:48 10° N
RESURS DK-1 2.7 23:37:48 46° WSW 23:38:43 58° WNW 23:42:50 10° NNE
Cosmos 220 Rocket 3.9 23:39:11 54° SSW 23:40:10 87° WNW 23:44:39 10° NNE
STARLINK-1231 3.9 23:36:21 10° WNW 23:40:29 67° NNE 23:44:36 10° ESE
STARLINK-1390 3.8 23:41:02 45° ESE 23:41:02 45° ESE 23:44:08 10° ENE
Cosmos 1626 Rocket 3.4 23:42:28 51° S 23:43:31 84° E 23:47:53 10° N
CZ-4C R/B 4.0 23:41:59 30° SE 23:43:54 57° ENE 23:48:12 10° N
Cosmos 1386 Rocket 4.4 23:42:37 35° S 23:45:24 83° E 23:51:36 10° N
STARLINK-1232 3.8 23:41:20 10° WNW 23:45:29 71° NNE 23:49:37 10° ESE
BREEZE-M R/B 2.9 23:45:15 40° SW 23:46:54 71° SSE 23:50:08 10° ENE
Cosmos 1980 Rocket 4.3 23:46:48 10° SE 23:50:05 16° E 23:53:23 10° ENE
STARLINK-1208 3.7 23:46:19 10° WNW 23:50:28 76° NNE 23:54:37 10° ESE
Cosmos 1709 Rocket 4.4 23:48:09 25° SSE 23:51:36 57° E 23:57:35 10° NNE
SL-14 R/B 4.2 23:53:14 31° W 23:53:48 33° WNW 23:57:20 10° N
Cosmos 2219 3.1 23:48:16 10° NNW 23:53:58 86° WSW 23:57:32 24° SSE
IRAS Rocket 4.4 23:52:21 36° SSW 23:54:27 57° WSW 23:59:57 10° NNW
Cosmos 1356 Rocket 3.4 23:50:27 10° NNW 23:54:35 64° W 23:55:29 49° SSW
STARLINK-1271 3.6 23:51:17 10° WNW 23:55:27 81° NNE 23:59:36 10° ESE
STARLINK-29 4.0 23:55:43 30° WNW 23:56:46 41° NNW 23:59:50 10° NE
